VLG9FE EBBR-LIRQ

Flight info

Callsign VLG9FE
Flight time N/A
Altitude 37000
Route ROUSY DCT GTQ DCT DEVDI DCT ODINA DCT SRN DCT ROBAS DCT MISPO/N0361F190 L995 OSBUL L153 BEROK
Aircraft A319/M-SDE3FGHIRWY/LB1

Departure

Time N/A
Airport Brussels Airport (EBBR)

Arrival

Time 2026-04-25 12:18
Airport Florence Airport, Peretola (LIRQ)
Time Latitude Longitude Altitude Speed Heading
2026-04-25 11:52 45.16199 9.62630 36991 ft 448 kts 152°
2026-04-25 11:52 45.13491 9.64639 36990 ft 448 kts 153°
2026-04-25 11:52 45.07975 9.68724 36987 ft 447 kts 153°
2026-04-25 11:53 45.02467 9.72794 36986 ft 447 kts 153°
2026-04-25 11:53 44.96951 9.76862 36984 ft 447 kts 153°
2026-04-25 11:54 44.91491 9.80880 36985 ft 447 kts 153°
2026-04-25 11:55 44.83206 9.86960 36984 ft 448 kts 153°
2026-04-25 11:55 44.77669 9.91012 36979 ft 449 kts 153°
2026-04-25 11:56 44.72132 9.95056 36978 ft 449 kts 153°
2026-04-25 11:56 44.66574 9.99106 36989 ft 450 kts 153°
2026-04-25 11:57 44.61014 10.03148 36994 ft 450 kts 153°
2026-04-25 11:57 44.55439 10.07194 36967 ft 452 kts 153°
2026-04-25 11:58 44.49853 10.11238 36984 ft 452 kts 153°
2026-04-25 11:58 44.44258 10.15278 36976 ft 453 kts 153°
2026-04-25 11:59 44.38658 10.19315 36768 ft 452 kts 153°
2026-04-25 11:59 44.35837 10.21345 36318 ft 450 kts 153°
2026-04-25 11:59 44.33044 10.23353 35574 ft 453 kts 153°
2026-04-25 12:00 44.27444 10.27372 34055 ft 453 kts 153°
2026-04-25 12:00 44.24592 10.29415 33023 ft 454 kts 153°
2026-04-25 12:00 44.19269 10.33971 30925 ft 456 kts 137°
2026-04-25 12:01 44.17156 10.37257 29943 ft 454 kts 125°
2026-04-25 12:01 44.15614 10.41114 29149 ft 447 kts 112°
2026-04-25 12:01 44.14730 10.45236 28276 ft 442 kts 100°
2026-04-25 12:01 44.14275 10.49439 27440 ft 437 kts 97°
2026-04-25 12:02 44.13464 10.57760 25660 ft 431 kts 99°
2026-04-25 12:02 44.12907 10.61828 24905 ft 424 kts 106°
2026-04-25 12:02 44.11767 10.65534 24509 ft 408 kts 121°
2026-04-25 12:03 44.10123 10.68626 24308 ft 388 kts 134°
2026-04-25 12:03 44.08144 10.71014 24151 ft 369 kts 146°
2026-04-25 12:03 44.05937 10.72708 24007 ft 351 kts 156°
2026-04-25 12:03 44.03748 10.74097 23870 ft 334 kts 155°
2026-04-25 12:04 44.01682 10.75426 23591 ft 324 kts 155°
2026-04-25 12:04 43.99642 10.76741 23096 ft 321 kts 155°
2026-04-25 12:04 43.97621 10.78036 22601 ft 319 kts 155°
2026-04-25 12:04 43.95613 10.79319 22097 ft 316 kts 155°
2026-04-25 12:05 43.93594 10.80610 21591 ft 314 kts 155°
2026-04-25 12:05 43.91617 10.81874 21094 ft 312 kts 155°
2026-04-25 12:05 43.89651 10.83132 20596 ft 310 kts 155°
2026-04-25 12:05 43.87683 10.84389 20011 ft 311 kts 155°
2026-04-25 12:06 43.85711 10.85650 19390 ft 314 kts 155°
2026-04-25 12:06 43.83725 10.86918 18769 ft 315 kts 155°
2026-04-25 12:06 43.81726 10.88193 18146 ft 317 kts 155°
2026-04-25 12:06 43.79720 10.89473 17522 ft 318 kts 155°
2026-04-25 12:07 43.77712 10.90752 16894 ft 318 kts 155°
2026-04-25 12:07 43.75702 10.92032 16269 ft 318 kts 155°
2026-04-25 12:07 43.73690 10.93311 15641 ft 317 kts 155°
2026-04-25 12:07 43.71692 10.94582 15016 ft 315 kts 155°
2026-04-25 12:08 43.69702 10.95845 14391 ft 314 kts 155°
2026-04-25 12:08 43.67728 10.97099 13766 ft 312 kts 155°
2026-04-25 12:08 43.66399 10.97942 13344 ft 311 kts 155°
2026-04-25 12:08 43.64373 10.98911 12716 ft 307 kts 173°
2026-04-25 12:09 43.62271 10.98717 12100 ft 304 kts 198°
2026-04-25 12:09 43.60442 10.97332 11480 ft 300 kts 223°
2026-04-25 12:09 43.59232 10.95030 10849 ft 297 kts 249°
2026-04-25 12:09 43.58868 10.92267 10222 ft 294 kts 274°
2026-04-25 12:10 43.59415 10.89584 9596 ft 292 kts 300°
2026-04-25 12:10 43.60760 10.87519 8982 ft 291 kts 326°
2026-04-25 12:10 43.62623 10.86494 8354 ft 291 kts 353°
2026-04-25 12:10 43.64634 10.86604 7723 ft 289 kts
2026-04-25 12:11 43.66630 10.86884 7096 ft 288 kts
2026-04-25 12:11 43.68614 10.86593 6460 ft 286 kts 348°
2026-04-25 12:11 43.70582 10.86470 5848 ft 285 kts 11°
2026-04-25 12:11 43.72377 10.87557 5240 ft 283 kts 39°
2026-04-25 12:12 43.73549 10.89631 4956 ft 268 kts 68°
2026-04-25 12:12 43.73813 10.92056 4886 ft 247 kts 99°
2026-04-25 12:12 43.73187 10.94109 4873 ft 224 kts 132°
2026-04-25 12:12 43.71965 10.95258 4723 ft 207 kts 163°
2026-04-25 12:13 43.70589 10.95744 4341 ft 202 kts 161°
2026-04-25 12:13 43.69504 10.96825 4144 ft 188 kts 124°
2026-04-25 12:13 43.69083 10.98473 3825 ft 183 kts 89°
2026-04-25 12:13 43.69375 11.00160 3449 ft 183 kts 65°
2026-04-25 12:14 43.69866 11.01761 3127 ft 180 kts 67°
2026-04-25 12:14 43.70340 11.03381 2958 ft 181 kts 66°
2026-04-25 12:14 43.70958 11.04911 2979 ft 183 kts 53°
2026-04-25 12:14 43.71749 11.06279 2729 ft 183 kts 48°
2026-04-25 12:15 43.72603 11.07569 2477 ft 177 kts 47°
2026-04-25 12:15 43.73413 11.08816 2223 ft 170 kts 47°
2026-04-25 12:15 43.74179 11.09987 2022 ft 157 kts 47°
2026-04-25 12:15 43.74872 11.11059 1815 ft 142 kts 47°
2026-04-25 12:16 43.75540 11.12089 1622 ft 141 kts 47°
2026-04-25 12:16 43.76162 11.13046 1434 ft 130 kts 47°
2026-04-25 12:16 43.76767 11.13979 1264 ft 130 kts 47°
2026-04-25 12:16 43.77367 11.14902 1097 ft 130 kts 47°
2026-04-25 12:17 43.77948 11.15797 920 ft 129 kts 47°
2026-04-25 12:17 43.78550 11.16728 792 ft 129 kts 47°
2026-04-25 12:17 43.79151 11.17646 626 ft 128 kts 47°
2026-04-25 12:17 43.79353 11.17951 564 ft 128 kts 47°
2026-04-25 12:18 43.81155 11.20739 134 ft 43 kts 48°
2026-04-25 12:18 43.81260 11.20933 135 ft 11 kts 79°
2026-04-25 12:19 43.81252 11.20897 136 ft 12 kts 223°
2026-04-25 12:19 43.81153 11.20733 134 ft 22 kts 231°
2026-04-25 12:19 43.81027 11.20543 127 ft 29 kts 226°
2026-04-25 12:20 43.80884 11.20320 133 ft 33 kts 227°
2026-04-25 12:20 43.80717 11.20065 132 ft 38 kts 223°
2026-04-25 12:20 43.80529 11.19985 131 ft 22 kts 193°
2026-04-25 12:20 43.80421 11.19947 129 ft 9 kts 196°
2026-04-25 12:21 43.80354 11.19891 132 ft 10 kts 201°
2026-04-25 12:21 43.80339 11.19884 126 ft 4 kts 200°
2026-04-25 12:21 43.80336 11.19883 126 ft 0 kts 200°
2026-04-25 12:41 43.80338 11.19883 126 ft 2 kts 201°
2026-04-25 12:41 43.80353 11.19891 132 ft 2 kts 186°
2026-04-25 12:41 43.80368 11.19893 132 ft 2 kts 184°
2026-04-25 12:41 43.80385 11.19894 132 ft 2 kts 178°
2026-04-25 12:42 43.80401 11.19892 132 ft 3 kts 172°
2026-04-25 12:42 43.80412 11.19890 132 ft 2 kts 165°
2026-04-25 12:42 43.80419 11.19886 132 ft 0 kts 148°
2026-04-25 12:44 43.80354 11.20008 127 ft 18 kts 78°
2026-04-25 12:45 43.80401 11.20035 130 ft 12 kts
2026-04-25 12:45 43.80505 11.20015 129 ft 15 kts 319°